This is the latest recevied weather packets stored in our database for station/object 9W3FAB-1. If no packets are shown the sender has not sent any weather packets the latest 10 day(s).
| Time | Temp. | Humidity | Pressure | Rain* | Wind** | Luminosity | Snow |
|---|---|---|---|---|---|---|---|
| 1777870901 | 29.44° C | 100% | 1008.1 hPa | - | - | - | - |
| 1777870001 | 30° C | 100% | 1008.5 hPa | - | - | - | - |
| 1777869100 | 30° C | 100% | 1008.6 hPa | - | - | - | - |
| 1777868199 | 31.11° C | 100% | 1008.8 hPa | - | - | - | - |
| 1777867298 | 30° C | 100% | 1009 hPa | - | - | - | - |
| 1777866397 | 30° C | 100% | 1009.3 hPa | - | - | - | - |
| 1777865496 | 29.44° C | 100% | 1009.5 hPa | - | - | - | - |
| 1777864596 | 29.44° C | 100% | 1009.7 hPa | - | - | - | - |
| 1777863695 | 29.44° C | 100% | 1009.9 hPa | - | - | - | - |
| 1777862794 | 28.89° C | 100% | 1010 hPa | - | - | - | - |
| 1777861893 | 28.33° C | 100% | 1010.2 hPa | - | - | - | - |
| 1777860992 | 28.33° C | 100% | 1010.4 hPa | - | - | - | - |
| 1777860091 | 27.78° C | 100% | 1010.4 hPa | - | - | - | - |
| 1777859190 | 27.78° C | 100% | 1010.3 hPa | - | - | - | - |
| 1777858290 | 27.78° C | 100% | 1010.2 hPa | - | - | - | - |
| 1777857389 | 27.22° C | 100% | 1010.2 hPa | - | - | - | - |
| 1777856488 | 27.78° C | 100% | 1010.1 hPa | - | - | - | - |
| 1777855587 | 27.22° C | 100% | 1009.9 hPa | - | - | - | - |
| 1777854686 | 27.22° C | 100% | 1009.8 hPa | - | - | - | - |
| 1777853785 | 27.22° C | 100% | 1009.3 hPa | - | - | - | - |
| 1777852884 | 27.22° C | 100% | 1008.9 hPa | - | - | - | - |
| 1777852074 | 27.78° C | 100% | 1008.5 hPa | - | - | - | - |
| 1777851173 | 27.22° C | 100% | 1008.2 hPa | - | - | - | - |
| 1777850272 | 27.22° C | 100% | 1007.9 hPa | - | - | - | - |
| 1777849371 | 27.78° C | 100% | 1007.7 hPa | - | - | - | - |
* Rain since midnight (hover to see other rain measurements)
** Current wind speed in m/s (hover to see current wind gust speed)